Theta_e
315 314 311 315 315 313 312 314 315 314 313 313 312 313 313 314 316 320 322 319 322 327 322 319 324 324 327 329 329 329 322 322 323 321 321 319 319 319 319 320 321 323 328 332 341
315 316 312 315 315 314 315 317 316 315 314 313 313 314 313 313 317 321 325 318 324 329 324 319 324 324 327 329 328 325 323 323 321 320 319 319 320 320 319 321 322 324 328 333 340
313 316 314 314 315 316 316 316 315 315 314 314 314 315 312 313 316 321 323 320 325 325 329 319 322 323 326 327 326 324 327 322 323 322 321 320 319 319 318 317 322 324 329 330 329
312 315 315 315 316 317 317 316 316 315 315 315 315 314 311 312 317 319 318 323 325 323 321 321 322 323 324 324 324 325 322 323 322 322 321 319 319 319 319 319 319 324 328 329 328
313 314 314 316 316 317 317 317 317 316 316 315 315 312 311 312 315 317 319 321 323 319 321 322 322 322 324 323 322 323 322 322 321 320 319 319 318 318 318 319 319 323 323 325 324
312 316 314 315 316 316 316 316 316 315 315 314 313 310 309 320 317 315 315 316 319 318 324 330 321 321 321 321 321 321 320 319 320 320 320 319 317 318 317 318 320 321 321 321 320
312 314 314 314 314 315 315 315 315 314 314 313 310 309 310 317 316 314 314 315 318 318 321 329 325 320 320 320 319 319 320 317 318 318 318 319 316 316 317 317 317 318 318 318 317
311 313 315 313 314 314 314 314 313 313 313 310 309 309 313 316 315 314 314 315 317 319 320 324 319 320 319 318 316 315 314 318 315 317 317 316 315 315 316 316 315 316 315 315 315
311 312 314 314 313 313 313 313 312 311 309 309 308 311 319 317 314 314 315 316 317 318 320 320 318 318 318 315 314 312 317 315 314 316 317 316 315 315 315 315 315 314 314 313 313
311 311 313 313 313 312 313 311 309 308 308 308 314 317 316 315 314 314 315 316 316 316 316 317 318 317 313 313 318 316 314 314 314 316 317 317 314 313 315 314 315 314 313 312 312
313 313 313 313 312 312 309 308 307 309 308 314 317 317 315 314 314 314 315 316 316 317 315 316 312 316 323 316 313 312 314 315 314 315 317 315 314 314 314 313 313 313 313 312 311
311 311 312 311 309 308 308 309 314 316 314 313 315 317 314 315 316 316 315 315 316 314 315 314 313 313 314 314 316 316 316 315 315 317 316 316 315 314 313 312 313 314 313 313 311
309 309 308 308 308 308 308 315 316 318 313 316 316 314 315 316 317 317 316 316 314 315 315 315 316 315 317 316 317 317 316 316 316 316 314 314 315 314 312 313 313 313 313 313 313
308 308 308 308 310 311 315 318 319 319 310 315 316 316 315 318 317 316 317 317 316 314 312 315 316 317 317 317 316 317 316 317 317 316 316 313 314 312 311 311 311 311 311 313 313
308 308 308 311 315 318 318 317 319 318 316 314 316 315 317 317 317 317 316 317 316 317 315 315 317 317 317 317 317 316 315 315 314 313 313 312 312 310 310 313 310 310 311 312 313
308 308 308 310 316 318 315 316 318 313 315 316 316 316 316 317 317 316 316 316 315 313 313 315 316 315 316 314 315 313 312 310 311 311 312 312 310 311 311 312 308 309 312 312 313
308 309 309 316 318 316 316 317 311 317 316 316 315 315 314 316 316 315 313 310 312 311 313 314 315 313 315 315 314 311 312 314 310 314 311 312 311 311 309 308 306 305 309 313 313
308 308 315 316 316 314 318 314 318 316 317 316 315 314 315 316 315 315 314 311 307 310 310 313 314 314 311 313 313 313 311 310 313 314 315 311 313 312 308 307 308 310 312 313 313
308 313 315 315 314 315 317 313 316 317 315 317 316 316 317 315 315 315 313 312 308 307 313 312 313 310 309 310 311 312 313 309 308 305 307 308 307 310 305 305 307 309 312 311 312
309 312 315 315 314 317 313 315 313 312 313 316 317 316 317 316 317 315 313 311 309 307 307 307 310 308 309 309 308 311 308 310 306 310 309 308 308 309 307 307 305 304 306 308 309
313 314 314 314 314 316 310 312 312 312 313 315 317 317 316 315 313 313 313 310 308 307 306 305 306 307 307 308 308 308 308 305 305 305 310 309 306 303 307 306 303 303 306 307 307
313 310 313 315 312 306 311 311 311 311 312 312 312 313 315 312 312 312 312 310 307 307 307 304 302 305 307 305 306 307 308 305 307 306 303 302 307 306 303 303 304 304 306 306 307
313 311 310 314 309 309 308 309 309 311 309 311 311 310 310 310 312 311 310 307 307 307 306 304 302 303 305 307 307 306 306 304 302 303 305 306 307 303 303 303 303 304 306 307 307
314 306 310 313 310 308 309 310 310 308 309 308 308 308 309 309 307 310 308 306 307 307 309 305 301 303 306 309 307 308 306 305 303 301 303 304 305 306 303 302 304 306 306 306 306
311 307 307 307 309 307 308 308 309 309 308 307 307 307 308 308 307 309 308 305 306 309 305 301 303 305 306 305 307 307 307 305 304 304 306 306 304 305 303 303 305 305 306 306 306
311 309 308 305 306 306 307 308 308 306 307 308 307 306 305 307 306 307 307 305 307 306 305 301 303 306 307 307 306 308 307 305 305 305 303 303 303 304 304 305 305 305 306 306 305
313 311 309 303 303 305 305 307 307 305 305 305 305 304 304 305 305 306 306 306 306 304 304 303 304 304 309 303 305 307 306 306 307 304 305 306 304 304 305 305 306 306 305 305 304
Wind_Speed
12 14 14 14 15 14 15 14 14 16 17 19 18 16 16 17 16 16 19 14 11 8 4 3 4 3 5 3 3 4 5 3 7 7 4 9 4 3 5 8 4 4 5 9 15
13 14 14 14 14 14 14 14 14 15 16 17 17 15 14 15 16 19 16 11 9 11 5 3 4 4 5 4 3 4 4 9 6 6 4 8 4 9 5 5 4 8 10 17 20
16 14 13 13 13 14 13 12 14 14 15 16 15 13 11 10 12 16 13 12 11 7 11 5 4 4 4 3 3 3 4 5 4 4 5 7 5 4 10 3 8 14 19 24 22
15 15 14 13 13 13 13 13 14 13 14 14 13 12 10 7 6 5 9 13 13 9 7 7 5 2 3 2 3 3 2 5 5 4 4 6 9 3 7 2 4 16 20 23 21
14 14 14 13 13 13 13 13 13 12 13 13 12 10 8 8 12 4 9 12 12 10 9 5 5 2 4 2 0 3 2 5 5 5 5 9 3 3 6 5 13 19 19 21 20
15 11 12 13 13 13 13 12 13 13 13 12 10 9 8 6 7 6 8 11 12 10 12 8 3 2 3 6 2 3 4 6 4 5 4 3 2 1 6 13 17 19 19 19 18
15 15 13 14 13 13 13 12 13 12 12 10 8 9 11 15 6 5 8 9 13 10 8 11 4 2 5 4 2 8 1 2 1 4 3 5 2 7 8 17 18 20 20 19 18
16 17 16 14 13 12 12 13 13 10 9 9 7 8 9 9 8 7 7 8 9 8 7 9 1 4 1 10 5 5 5 2 0 4 1 3 7 2 12 20 19 21 21 21 21
15 20 17 14 13 12 12 11 10 9 8 6 6 6 7 8 7 8 7 7 8 6 7 6 3 4 4 5 5 5 3 3 8 4 2 3 6 1 12 21 21 23 24 23 22
7 11 13 12 12 12 9 8 6 6 7 3 6 4 6 7 8 8 6 8 5 8 6 4 3 3 3 4 5 6 3 3 5 1 1 2 11 5 8 21 25 25 25 26 25
5 8 10 10 8 7 5 4 4 3 9 9 3 4 5 12 9 6 7 7 5 4 3 3 4 6 10 3 3 5 3 3 2 2 3 6 9 12 14 20 23 25 29 28 27
5 7 6 6 5 5 9 5 1 4 6 15 12 10 7 7 6 5 7 4 3 3 4 5 5 3 4 5 3 3 3 3 3 1 3 4 11 11 5 10 25 31 32 33 27
4 5 6 5 6 6 9 2 6 6 2 2 4 3 7 4 4 4 4 3 2 3 3 5 1 6 4 4 4 2 3 2 4 4 1 6 7 5 2 2 5 17 27 31 32
5 4 7 7 4 3 3 4 3 3 4 4 1 2 3 5 5 4 4 3 1 5 6 2 2 3 3 3 4 1 1 2 2 3 3 4 5 6 4 8 4 7 15 24 29
8 6 8 6 2 1 3 4 3 1 4 2 0 3 4 5 5 3 5 2 2 2 4 2 2 2 3 1 1 2 4 3 3 3 3 3 2 7 5 6 8 10 7 15 24
11 9 7 2 2 2 6 2 2 3 2 2 2 1 5 4 3 3 2 4 3 4 5 2 2 3 2 3 4 6 4 6 4 3 1 2 3 5 4 5 7 9 7 8 16
10 8 5 2 3 6 4 1 4 4 1 1 3 2 3 1 2 2 4 5 2 3 1 4 2 2 2 4 3 5 5 3 4 3 5 1 2 6 5 4 5 12 11 6 8
8 8 5 3 8 6 2 3 4 2 2 2 4 4 4 4 3 3 3 2 5 3 3 4 3 2 4 2 5 2 5 5 4 2 4 1 5 2 3 8 9 8 5 4 4
10 6 4 4 4 2 2 3 3 1 2 4 3 3 2 2 4 4 3 2 1 3 4 4 1 1 4 2 2 2 2 2 5 3 1 3 5 4 7 7 13 18 15 8 3
10 5 4 4 2 1 4 3 1 1 2 1 2 2 3 2 3 3 3 1 1 2 1 3 2 2 1 3 5 2 5 3 3 2 3 4 4 3 5 5 7 13 17 14 10
7 3 4 4 2 1 2 4 2 1 2 3 2 3 2 3 4 3 3 2 1 1 3 3 3 2 1 2 6 2 0 5 4 3 4 2 5 5 2 4 6 11 15 18 19
4 1 5 5 2 2 2 2 1 1 3 3 3 3 4 3 3 2 5 2 1 1 3 1 4 3 3 1 1 2 4 5 4 4 1 4 5 1 3 5 6 9 12 13 14
2 1 5 7 2 1 3 1 2 2 3 2 2 2 2 3 3 2 3 2 2 2 3 3 1 2 5 4 2 2 3 4 5 3 5 4 5 1 3 8 9 9 10 10 11
3 1 2 5 2 5 4 2 1 2 2 3 2 2 2 2 5 4 2 2 2 3 5 2 2 4 5 2 1 1 3 4 4 3 4 6 4 2 6 4 6 7 8 9 12
4 3 4 2 3 3 3 3 3 1 2 2 2 2 2 2 2 3 2 2 3 2 3 3 2 2 3 3 1 3 4 5 6 4 5 4 7 1 2 4 3 5 7 9 13
3 4 4 2 2 6 1 5 5 2 2 1 2 2 3 3 1 6 5 3 2 2 2 4 1 2 2 3 3 4 7 6 4 3 7 4 6 4 4 1 4 6 6 7 9
10 5 3 1 3 4 4 5 6 8 2 3 4 4 5 2 8 10 8 11 7 5 3 2 3 2 4 4 6 6 4 5 4 4 4 4 4 5 2 3 8 10 8 12 15
Wind_Direction
267 270 265 265 265 270 270 269 267 268 267 272 275 273 266 264 256 254 257 255 241 241 282 234 237 223 174 147 132 129 71 166 196 158 212 170 136 145 119 133 136 156 161 151 156
259 266 258 260 268 266 265 267 267 270 271 271 275 271 266 269 266 249 234 254 230 228 261 289 226 204 155 151 134 94 116 208 188 181 181 168 163 151 144 129 90 126 145 152 160
255 257 257 255 263 265 264 260 265 272 273 274 273 266 262 269 285 257 238 230 213 213 233 278 278 209 123 160 147 133 171 169 175 173 150 140 126 154 141 219 195 175 156 159 165
256 254 248 248 254 262 263 259 267 272 276 276 273 262 254 246 203 226 199 204 210 203 200 222 273 180 112 150 137 109 81 130 133 128 122 137 141 148 193 210 204 175 165 166 173
253 254 246 243 247 257 263 264 269 271 278 277 269 260 248 236 236 219 185 201 206 205 196 183 256 171 112 46 93 100 124 94 120 131 117 139 115 222 213 190 164 169 167 169 172
246 246 241 239 242 250 261 265 270 275 278 273 257 254 240 246 222 215 201 197 194 201 203 207 251 152 109 75 86 77 97 109 127 127 132 138 145 199 201 168 164 174 176 178 181
245 239 243 239 242 248 258 267 274 277 272 258 247 250 237 219 196 206 201 189 187 196 202 204 239 243 124 112 108 96 21 47 154 169 142 152 288 235 195 178 175 180 182 182 183
247 236 239 242 246 252 261 268 272 271 252 237 237 248 246 212 202 200 191 175 176 195 209 200 141 148 64 115 40 62 47 41 274 149 100 144 268 320 191 185 184 184 185 187 189
251 225 231 240 247 252 258 266 265 251 227 205 241 229 257 190 195 182 174 159 157 176 182 180 192 70 74 76 31 6 204 215 320 196 123 152 262 191 193 197 197 195 193 192 192
225 216 228 239 243 248 258 260 246 215 204 166 224 256 236 178 168 175 166 151 134 146 135 151 91 91 49 104 203 209 199 238 239 207 94 224 261 242 205 205 213 206 200 198 197
212 221 223 227 234 249 245 187 181 189 212 190 223 276 159 140 138 148 164 149 132 149 120 75 91 195 208 198 116 139 169 221 238 213 173 239 267 271 229 218 222 218 211 205 202
209 203 205 215 215 202 190 207 159 25 274 242 268 266 148 135 112 115 148 125 146 155 115 49 222 236 128 161 157 150 169 256 282 105 170 320 277 267 201 227 226 224 219 213 203
190 193 155 163 172 195 209 301 326 298 235 95 153 141 137 124 87 96 147 132 120 134 160 148 232 138 135 136 132 142 176 211 238 337 73 330 292 321 33 334 283 248 240 222 211
140 159 146 142 152 193 185 343 333 330 84 309 56 92 127 115 57 80 120 140 68 163 151 123 355 123 92 109 118 240 297 118 71 50 263 18 286 304 337 324 315 288 233 226 216
141 155 161 155 77 183 314 315 296 283 88 236 253 110 123 94 138 38 78 81 113 100 104 218 99 99 94 110 123 171 66 62 64 87 15 336 94 272 345 348 343 342 248 222 217
157 170 183 210 321 319 323 269 246 61 118 139 74 61 79 45 58 104 100 77 84 81 39 59 44 57 96 62 66 143 76 46 52 76 354 301 144 294 336 303 309 334 316 228 212
169 170 194 258 327 329 336 278 34 75 309 184 127 99 89 245 84 67 45 26 88 92 9 16 17 5 79 91 43 72 61 335 346 10 225 314 102 252 306 321 299 307 318 219 215
177 183 222 268 307 315 306 44 44 201 211 120 102 111 142 177 45 64 70 68 30 71 103 145 315 21 354 88 169 94 145 156 244 227 276 90 237 252 307 345 4 20 50 166 220
181 194 261 257 303 310 326 50 220 248 313 118 95 92 64 78 109 80 63 160 359 20 142 130 277 6 48 34 77 160 158 169 104 25 36 275 297 328 3 5 29 47 58 48 4
187 213 238 231 264 312 70 244 220 309 332 168 117 117 146 162 100 116 174 276 151 48 44 173 101 9 2 98 42 116 153 71 14 215 267 296 285 235 350 339 11 24 31 34 33
185 226 214 216 213 304 161 222 241 20 9 34 137 101 114 143 141 169 176 319 3 59 59 116 96 286 45 185 178 73 53 54 114 127 177 281 273 217 265 353 9 37 48 50 55
190 7 182 189 57 29 176 225 15 21 33 39 83 86 143 151 117 134 189 27 9 30 120 10 133 195 193 84 199 177 184 146 125 219 91 144 273 279 25 5 31 55 63 66 61
220 193 186 184 157 263 279 339 65 42 35 51 77 33 44 121 113 108 103 15 31 70 143 186 22 36 354 12 6 217 173 107 105 93 195 136 263 200 74 52 65 78 68 51 34
191 88 161 195 166 147 169 192 128 43 71 70 115 82 104 88 25 145 118 31 34 83 77 97 112 155 186 195 161 249 172 144 119 116 185 224 274 273 356 92 79 56 46 40 22
208 229 172 209 239 163 137 135 129 175 67 61 53 74 129 110 84 112 109 114 45 57 55 88 145 178 247 257 289 253 234 174 194 194 180 238 213 92 161 149 60 19 21 2 352
209 169 169 132 158 128 164 207 158 149 100 324 106 95 58 117 178 192 135 185 181 42 63 8 107 31 320 20 5 278 251 226 227 216 259 270 278 192 147 157 351 356 340 314 314
216 217 194 166 133 118 214 175 189 134 59 91 138 104 73 80 103 99 103 102 129 138 126 92 119 72 272 349 326 304 249 192 192 180 172 200 234 155 155 1 337 325 315 308 307